Location: Buckeye Ditch
(40.9104°N, 122.9517°W)
Time: 18:33:18
(UTC+00:00)

BlueWalker 3 - Pass Details

Date: 25 June 2024
Orbit: 480 x 491 km, 53.2° (Epoch: 23 July)

Event Time Altitude Azimuth Distance (km) Brightness Sun altitude
Rises 06:19:23 0° 303° (WNW) 2,541 6.6 -20.4°
Reaches altitude 10° 06:22:42 10° 335° (NNW) 1,660 5.8 -20.7°
Maximum altitude 06:24:19 12° 0° (N) 1,516 5.2 -20.8°
Drops below altitude 10° 06:25:57 10° 26° (NNE) 1,658 5.0 -20.9°
Sets 06:29:16 0° 58° (ENE) 2,537 5.6 -21.2°
